Nenana, AK

2:06 AM AKDT en Septiembre 21, 2018 (GMT -0800)
Nenana Municipal

Tiempo Historia de PANN - Mayo, 2018

Change the Weather History Date:

Miércoles, Mayo 16, 2018

  Actual Average Record
Temperature  
Temperatura media 47 ° F -  
Temperatura máxima 62 ° F 58 ° F 76 ° F (1969)
Temperatura mínima 32 ° F 34 ° F 28 ° F (2013)
Degree Days  
Grados día de calefacción 18    
Moisture  
Punto de rocío 34 ° F    
Average Humidity 65    
Maximum Humidity 97    
Minimum Humidity 31    
Precipitación  
Precipitación 0.00 pul - - ()
Presión al nivel del mar  
Presión al nivel del mar 30.11 pul    
Viento  
Velocidad del viento 3 mph (Oeste)    
Velocidad máxima del viento 8 mph    
Max Gust Speed -    
Visibilidad 10 Millas    
Eventos      
Averages and records for this station are not official NWS values.
T = Trace of Precipitation, MM = Missing Value Source: NWS Daily Summary

Daily Weather History Graph

Daily Weather History Graph

Search for Another Location

Airport or City:

Astronomía

May. 16, 2018 Salida Puesta
Hora real 4:32 AM AKDT 11:15 PM AKDT
Crepúsculo civil 2:30 AM AKDT 1:32 AM AKDT
Crepúsculo náutico Sun does not set Sun does not set
Crepúsculo astronómico Sun does not set Sun does not set
Luna 6:10 AM AKDT (5/16) Sin puesta de luna
Horas de luz 23h 01m
Horas de luz
18h 42m
Luna nueva, 3% of the Moon is Illuminated
May 16
Luna nueva
May 21
Cuarto creciente
May 29
Luna llena
Jun 6
Cuarto menguante
Jun 13
Nueva

Hourly Weather History & Observations

Hora (AKDT) Temp. Vientos helados Punto de rocío Humedad Presión Visibilidad Wind Dir Velocidad del viento Velocidad de ráfagas Precip Eventos Condiciones
12:53 AM 39.0 ° F 36.8 ° F 36.0 ° F 89% 30.04 pul 10.0 mi Oeste 3.5 mph - N/A   Despejado
1:53 AM 36.0 ° F 33.3 ° F 34.0 ° F 93% 30.09 pul 10.0 mi Oeste 3.5 mph - N/A   Despejado
2:53 AM 33.1 ° F - 32.0 ° F 96% 30.09 pul 10.0 mi Sin viento Sin viento - N/A   Parcialmente nublado
3:53 AM 35.1 ° F - 34.0 ° F 96% 30.06 pul 10.0 mi Sin viento Sin viento - N/A   Nubes dispersas
4:53 AM 32.0 ° F - 30.9 ° F 96% 30.08 pul 10.0 mi Sin viento Sin viento - N/A   Nubes dispersas
5:53 AM 34.0 ° F - 33.1 ° F 96% 30.11 pul 10.0 mi Sin viento Sin viento - N/A   Despejado
6:53 AM 36.0 ° F - 35.1 ° F 97% 30.11 pul 10.0 mi Sin viento Sin viento - N/A   Muy nublado
7:53 AM 42.1 ° F - 37.0 ° F 82% 30.09 pul 10.0 mi Sin viento Sin viento - N/A   Despejado
8:53 AM 46.0 ° F - 36.0 ° F 68% 30.09 pul 10.0 mi Sin viento Sin viento - N/A   Muy nublado
9:53 AM 46.9 ° F - 36.0 ° F 66% 30.10 pul 10.0 mi SSO 5.8 mph - N/A   Despejado
10:53 AM 48.9 ° F - 36.0 ° F 61% 30.11 pul 10.0 mi Sin viento Sin viento - N/A   Parcialmente nublado
11:53 AM 51.1 ° F - 30.0 ° F 44% 30.12 pul 10.0 mi Variable 5.8 mph - N/A   Nubes dispersas
12:53 PM 48.0 ° F - 35.1 ° F 61% 30.13 pul 10.0 mi Oeste 6.9 mph - N/A   Nublado
1:53 PM 48.9 ° F - 36.0 ° F 61% 30.13 pul 10.0 mi Variable 5.8 mph - N/A   Nublado
2:53 PM 52.0 ° F - 35.1 ° F 53% 30.13 pul 10.0 mi SSO 8.1 mph - N/A   Nubes dispersas
3:53 PM 52.0 ° F - 33.1 ° F 49% 30.13 pul 10.0 mi Variable 3.5 mph - N/A   Nubes dispersas
4:53 PM 52.0 ° F - 30.9 ° F 45% 30.12 pul 10.0 mi Variable 5.8 mph - N/A   Parcialmente nublado
5:53 PM 54.0 ° F - 30.0 ° F 40% 30.12 pul 10.0 mi ONO 8.1 mph - N/A   Muy nublado
6:53 PM 54.0 ° F - 28.9 ° F 38% 30.11 pul 10.0 mi Sin viento Sin viento - N/A   Despejado
7:53 PM 54.0 ° F - 28.9 ° F 38% 30.11 pul 10.0 mi Variable 3.5 mph - N/A   Despejado
8:53 PM 54.0 ° F - 28.9 ° F 38% 30.11 pul 10.0 mi NNO 4.6 mph - N/A   Despejado
9:53 PM 53.1 ° F - 28.9 ° F 40% 30.12 pul 10.0 mi Sin viento Sin viento - N/A   Muy nublado
10:53 PM 46.9 ° F - 32.0 ° F 56% 30.13 pul 10.0 mi Sin viento Sin viento - N/A   Muy nublado
11:53 PM 42.1 ° F - 33.1 ° F 70% 30.14 pul 10.0 mi Sin viento Sin viento - N/A   Nubes dispersas